Location: Fontevrault
(47.1823°N, 0.0493°E)
Time: 09:10:47
(UTC+00:00)

Cosmos 2058 Rocket - Pass Details

Date: 16 June 2021
Orbit: 609 x 640 km, 82.5° (Epoch: 01 August)

Event Time Altitude Azimuth Distance (km) Brightness Sun altitude
Rises 23:17:25 0° 351° (N) 2,936 8.2 -18.8°
Reaches altitude 10° 23:19:41 10° 352° (N) 2,019 7.0 -18.8°
Maximum altitude 23:24:10 83° 80° (E) 636 3.0 -19.0°
Enters shadow 23:25:34 44° 164° (SSE) 871 3.3 -19.0°
